Location: eljas
(40.1958°N, 6.8661°W)
Time: 04:22:01
(UTC+02:00)

Amateur Radio Satellites - All Passes

Search period start: 05 August 2015 03:52
Search period end: 06 August 2015 03:52
Location: eljas, 40.1958°N, 6.8661°W

Satellite Date Start Highest point End Downlink Frequencies (MHz)
Time Altitude Azimuth
YUBILEINY 05 Aug 04:21:18 04:26:19 15° 302° (WNW) 04:30:48 435.215
KKS-1 05 Aug 04:21:42 04:25:59 52° 73° (ENE) 04:30:20 437.445
ITAMSAT 1 05 Aug 04:32:02 04:36:54 41° 98° (E) 04:41:46 435.822/435.867
Cosmos 2504 05 Aug 04:32:28 04:39:39 82° 278° (W) 04:47:27 435.465 / 435.565
Gurwin Techsat 1B 05 Aug 04:33:26 04:38:34 49° 99° (E) 04:43:43 435.225
BEESAT 05 Aug 04:36:54 04:40:24 19° 268° (W) 04:43:46 436.000
Oscar 19 05 Aug 04:41:19 04:46:13 42° 289° (WNW) 04:51:04 437.125/150
JAS-2 05 Aug 04:46:39 04:53:33 34° 92° (E) 05:00:22 435.910
ISS 05 Aug 04:57:36 05:00:21 24° 226° (SW) 05:03:03 145.825
CUSAT 1 05 Aug 04:59:49 05:01:36 16° 94° (E) 05:03:22 437.405
SWISSCUBE 05 Aug 05:00:57 05:01:59 10° 273° (W) 05:02:41 437.505
DANDE 05 Aug 05:09:30 05:10:56 13° 96° (E) 05:12:23 436.750
STARS 05 Aug 05:20:56 05:25:14 57° 260° (W) 05:29:33 437.465
HORYU 2 05 Aug 05:21:31 05:24:09 16° 91° (E) 05:26:57 437.375
MOZHAYETS 4 05 Aug 05:41:44 05:46:08 45° 73° (ENE) 05:50:36
RS-15 05 Aug 05:56:40 06:06:59 36° 36° (NE) 06:17:53 29.354- 29.394
KKS-1 05 Aug 06:00:40 06:03:01 14° 270° (W) 06:05:09 437.445
AO-7 05 Aug 06:06:14 06:14:15 50° 101° (E) 06:22:16 29.400- 29.500
ITAMSAT 1 05 Aug 06:12:02 06:16:12 24° 294° (WNW) 06:20:14 435.822/435.867
Gurwin Techsat 1B 05 Aug 06:14:14 06:18:14 21° 295° (WNW) 06:22:06 435.225
Cosmos 2504 05 Aug 06:29:34 06:33:31 14° 302° (WNW) 06:37:07 435.465 / 435.565
JAS-2 05 Aug 06:31:13 06:38:49 53° 290° (WNW) 06:46:09 435.910
DANDE 05 Aug 06:52:28 06:53:58 13° 286° (WNW) 06:55:18 436.750
HORYU 2 05 Aug 06:56:44 07:01:05 47° 288° (WNW) 07:05:24 437.375
GONETS M04 05 Aug 07:01:33 07:09:43 49° 90° (E) 07:17:58
MOZHAYETS 4 05 Aug 07:20:27 07:23:38 17° 269° (W) 07:26:39
BEESAT 3 05 Aug 07:36:31 07:36:57 10° 38° (NE) 07:37:33 437.485
CUBESAT XI-V 05 Aug 07:47:08 07:51:49 80° 75° (ENE) 07:56:30 437.345
Cosmos 2499 05 Aug 07:48:07 07:53:01 20° 81° (E) 07:58:31 435.465 / 435.565
AO-7 05 Aug 07:59:23 08:06:53 38° 299° (WNW) 08:14:11 29.400- 29.500
RS-15 05 Aug 08:09:04 08:20:56 82° 240° (WSW) 08:33:10 29.354- 29.394
CUTE-I 05 Aug 08:09:28 08:14:09 32° 96° (E) 08:18:53 437.470
JAS-2 05 Aug 08:20:11 08:22:19 11° 308° (NW) 08:23:54 435.910
STRAND 1 05 Aug 08:20:25 08:25:25 55° 73° (ENE) 08:30:27 437.568
BEESAT 2 05 Aug 08:38:19 08:41:50 27° 49° (NE) 08:45:20 435.950
PRISM 05 Aug 08:39:29 08:43:38 69° 76° (ENE) 08:47:49 437.425
Cubesat XI-IV 05 Aug 08:54:24 08:59:46 84° 103° (ESE) 09:05:05 437.490
GONETS M04 05 Aug 08:58:56 09:06:50 36° 290° (WNW) 09:14:35
AIST 2 05 Aug 09:02:50 09:05:02 14° 41° (NE) 09:07:20 435.215
BEESAT 3 05 Aug 09:11:35 09:15:39 78° 57° (ENE) 09:19:38 437.485
PCSat 05 Aug 09:30:55 09:35:53 40° 112° (ESE) 09:40:56 145.827
Cosmos 2499 05 Aug 09:37:47 09:45:15 75° 280° (W) 09:53:24 435.465 / 435.565
GOMX 1 05 Aug 09:45:49 09:49:35 24° 94° (E) 09:53:39 467.674
AUBIESAT-1 05 Aug 09:47:03 09:48:14 11° 56° (NE) 09:49:39 437.475
CANX-2 05 Aug 09:48:12 09:49:11 11° 88° (E) 09:50:27 2200.000
CUTE-I 05 Aug 09:49:31 09:54:13 32° 292° (WNW) 09:58:49 437.470
BRITE-PL 05 Aug 09:56:25 10:00:49 51° 100° (E) 10:05:34 437.365/2234.400
STRAND 1 05 Aug 10:01:38 10:05:02 17° 270° (W) 10:08:14 437.568
SO-50 05 Aug 10:09:43 10:14:27 77° 120° (ESE) 10:19:22 436.795
BEESAT 2 05 Aug 10:16:21 10:19:49 27° 246° (WSW) 10:23:11 435.950
RS-15 05 Aug 10:23:58 10:32:01 20° 259° (WSW) 10:39:22 29.354- 29.394
CINEMA 3 05 Aug 10:29:03 10:32:23 19° 92° (E) 10:35:57 145.822/145.860
Cubesat XI-IV 05 Aug 10:36:43 10:39:13 13° 299° (WNW) 10:41:28 437.490
AIST 2 05 Aug 10:39:57 10:44:09 73° 240° (WSW) 10:48:14 435.215
COMPASS 1 05 Aug 10:40:30 10:43:56 24° 94° (E) 10:47:24 437.405
HO-68 05 Aug 10:49:41 10:56:43 55° 101° (E) 11:03:45 435.675
DOVE 4 05 Aug 10:50:21 10:55:06 69° 101° (E) 11:00:07 437.250
M-CUBED/EXP-1 PRIME 05 Aug 10:53:04 10:57:10 61° 69° (ENE) 11:01:39 437.505
TIGRISAT 05 Aug 10:54:37 10:56:11 12° 63° (ENE) 10:57:58 435.000
ANTELSAT 05 Aug 10:57:46 10:59:51 14° 64° (ENE) 11:02:11 437.575/2403.000
SEEDS 05 Aug 11:02:15 11:06:27 56° 100° (E) 11:10:37 437.485
ZACube-1 05 Aug 11:09:48 11:11:51 13° 89° (E) 11:14:09 437.345
CUTE 1.7 + AOD 2 05 Aug 11:12:11 11:16:31 88° 284° (WNW) 11:20:47 437.475
PCSat 05 Aug 11:14:39 11:19:25 30° 310° (NW) 11:24:09 145.827
AAUSAT CUBESAT 2 05 Aug 11:17:32 11:21:40 55° 100° (E) 11:25:45 437.432
AUBIESAT-1 05 Aug 11:18:04 11:22:14 83° 253° (WSW) 11:26:45 437.475
CANX-2 05 Aug 11:21:20 11:25:36 62° 285° (WNW) 11:29:48 2200.000
GOMX 1 05 Aug 11:23:34 11:27:47 34° 288° (WNW) 11:32:13 467.674
FUNcube-1 05 Aug 11:28:24 11:31:46 21° 92° (E) 11:35:16 145.935
Oscar 11 05 Aug 11:33:05 11:37:06 35° 97° (E) 11:41:06 145.826/435.025
BRITE-PL 05 Aug 11:36:13 11:39:05 16° 292° (WNW) 11:41:54 437.365/2234.400
Cosmos 2499 05 Aug 11:36:34 11:40:20 13° 304° (NW) 11:43:41 435.465 / 435.565
DUCHIFAT 1 05 Aug 11:37:24 11:38:57 12° 65° (ENE) 11:40:45 145.980
UWE-3 05 Aug 11:41:50 11:46:11 39° 97° (E) 11:50:34 435.000/436.395/437.385
NANOSAT C BR1 05 Aug 11:42:49 11:45:02 15° 66° (ENE) 11:47:25 145.865
QB50P1 05 Aug 11:43:20 11:45:39 15° 66° (ENE) 11:48:08 145.935-145.965
UNISAT 6 05 Aug 11:46:47 11:50:56 44° 72° (ENE) 11:55:14 437.425
O/OREOS (USA 219) 05 Aug 11:47:20 11:51:29 33° 61° (ENE) 11:55:39 437.305
SO-50 05 Aug 11:52:22 11:55:38 17° 321° (NW) 11:58:49 436.795
CINEMA 3 05 Aug 12:05:13 12:09:47 45° 287° (WNW) 12:14:28 145.822/145.860
CUBEBUG 2 05 Aug 12:06:27 12:11:10 90° 286° (WNW) 12:15:56 437.445
DELFI C3 05 Aug 12:07:49 12:11:50 60° 100° (E) 12:15:48 145.870
DX 1 05 Aug 12:11:07 12:13:31 15° 91° (E) 12:16:06 434.975-435.025
COMPASS 1 05 Aug 12:15:58 12:19:33 27° 290° (WNW) 12:23:03 437.405
BUGSAT 1 05 Aug 12:23:17 12:26:29 24° 70° (ENE) 12:29:47 437.445
POLYITAN 1 05 Aug 12:26:54 12:30:54 45° 73° (ENE) 12:34:57 437.675
TIGRISAT 05 Aug 12:28:02 12:32:22 68° 259° (W) 12:36:51 435.000
YUBILEINY 05 Aug 12:29:52 12:38:25 52° 76° (ENE) 12:47:00 435.215
DOVE 4 05 Aug 12:30:01 12:32:26 14° 294° (WNW) 12:34:42 437.250
M-CUBED/EXP-1 PRIME 05 Aug 12:30:49 12:32:32 12° 268° (W) 12:34:03 437.505
ANTELSAT 05 Aug 12:31:50 12:36:09 59° 260° (W) 12:40:36 437.575/2403.000
AIST 1 05 Aug 12:32:08 12:35:13 20° 89° (E) 12:38:27
HO-68 05 Aug 12:38:04 12:44:08 30° 298° (WNW) 12:50:02 435.675
SEEDS 05 Aug 12:39:45 12:41:48 13° 295° (WNW) 12:43:39 437.485
VELOX 1 05 Aug 12:41:42 12:44:50 19° 93° (E) 12:48:06 145.980
POPSAT HIP 1 05 Aug 12:41:56 12:46:05 67° 75° (ENE) 12:50:16 437.405
ZACube-1 05 Aug 12:44:06 12:48:38 59° 285° (WNW) 12:53:09 437.345
QB50P2 05 Aug 12:50:44 12:54:56 88° 87° (E) 12:59:11 145.880/145.840
HUMSAT D 05 Aug 12:54:06 12:58:28 74° 101° (ESE) 13:02:46 437.325/437.525
AAUSAT CUBESAT 2 05 Aug 12:54:51 12:56:50 13° 295° (WNW) 12:58:37 437.432
FUNcube-1 05 Aug 13:03:59 13:08:13 37° 288° (WNW) 13:12:26 145.935
Cosmos 2491 05 Aug 13:04:44 13:12:46 44° 89° (E) 13:20:55 435.465 / 435.565
50 SAT 05 Aug 13:06:41 13:10:30 44° 99° (E) 13:14:18 437.505
Oscar 11 05 Aug 13:09:49 13:13:03 20° 292° (WNW) 13:16:11 145.826/435.025
DUCHIFAT 1 05 Aug 13:10:12 13:14:19 58° 259° (W) 13:18:28 145.980
UKube-1 05 Aug 13:10:36 13:14:54 63° 101° (E) 13:19:11 .
ESTCUBE 1 05 Aug 13:10:38 13:14:31 29° 95° (E) 13:18:26 437.505/2401.250
NANOSAT C BR1 05 Aug 13:16:27 13:20:30 48° 261° (W) 13:24:35 145.865
QB50P1 05 Aug 13:17:07 13:21:10 46° 261° (W) 13:25:14 145.935-145.965
UWE-3 05 Aug 13:18:55 13:22:28 22° 292° (WNW) 13:25:57 435.000/436.395/437.385
UNISAT 6 05 Aug 13:25:09 13:28:01 16° 270° (W) 13:30:45 437.425
O/OREOS (USA 219) 05 Aug 13:27:03 13:30:46 24° 257° (WSW) 13:34:22 437.305
AISAT 05 Aug 13:39:32 13:43:59 89° 114° (ESE) 13:48:26 437.250
CUBEBUG 1 05 Aug 13:39:37 13:43:49 49° 99° (E) 13:48:03 437.445
DELFI C3 05 Aug 13:45:05 13:46:26 11° 295° (WNW) 13:47:34 145.870
DX 1 05 Aug 13:45:53 13:50:03 46° 288° (WNW) 13:54:13 434.975-435.025
CUBEBUG 2 05 Aug 13:46:46 13:47:14 10° 297° (WNW) 13:47:25 437.445
TISAT 1 05 Aug 13:54:00 13:55:27 12° 89° (E) 13:57:08 437.305
BUGSAT 1 05 Aug 13:58:31 14:01:54 25° 265° (W) 14:05:12 437.445
SPROUT 05 Aug 13:58:34 14:02:01 23° 94° (E) 14:05:31 437.525
POLYITAN 1 05 Aug 14:04:44 14:07:06 14° 270° (W) 14:09:18 437.675
AIST 1 05 Aug 14:08:49 14:12:42 31° 284° (WNW) 14:16:33
VELOX 1 05 Aug 14:17:28 14:21:32 37° 289° (WNW) 14:25:34 145.980
Oscar 19 05 Aug 14:18:57 14:23:22 31° 69° (ENE) 14:27:53 437.125/150
Cosmos 2504 05 Aug 14:18:58 14:26:25 34° 70° (ENE) 14:34:07 435.465 / 435.565
YUBILEINY 05 Aug 14:27:16 14:34:57 34° 274° (W) 14:42:26 435.215
HUMSAT D 05 Aug 14:32:35 14:33:38 11° 296° (WNW) 14:34:28 437.325/437.525
50 SAT 05 Aug 14:42:31 14:44:43 14° 294° (WNW) 14:46:45 437.505
ESTCUBE 1 05 Aug 14:47:33 14:51:18 26° 291° (WNW) 14:54:57 437.505/2401.250
UKube-1 05 Aug 14:48:43 14:50:34 12° 296° (WNW) 14:52:11 .
BEESAT 05 Aug 15:01:03 15:02:16 11° 88° (E) 15:03:49 436.000
JAS-2 05 Aug 15:01:21 15:04:11 13° 54° (NE) 15:07:29 435.910
Cosmos 2491 05 Aug 15:01:36 15:09:45 40° 288° (WNW) 15:17:47 435.465 / 435.565
AO-7 05 Aug 15:17:08 15:21:03 15° 49° (NE) 15:25:25 29.400- 29.500
CUBEBUG 1 05 Aug 15:17:15 15:19:49 15° 294° (WNW) 15:22:14 437.445
SWISSCUBE 05 Aug 15:20:27 15:23:56 20° 92° (E) 15:27:32 437.505
TISAT 1 05 Aug 15:27:28 15:31:37 55° 286° (WNW) 15:35:45 437.305
CUSAT 1 05 Aug 15:32:05 15:35:53 24° 75° (ENE) 15:40:41 437.405
SPROUT 05 Aug 15:34:21 15:38:06 29° 290° (WNW) 15:41:47 437.525
ITUPSAT 1 05 Aug 15:43:12 15:47:25 31° 96° (E) 15:51:40 437.325
DANDE 05 Aug 15:45:23 15:48:23 19° 75° (ENE) 15:52:09 436.750
ITAMSAT 1 05 Aug 15:49:19 15:54:25 60° 73° (ENE) 15:59:34 435.822/435.867
Gurwin Techsat 1B 05 Aug 15:53:52 15:59:09 74° 75° (ENE) 16:04:29 435.225
Oscar 19 05 Aug 15:58:12 16:02:42 30° 265° (W) 16:07:11 437.125/150
Cosmos 2504 05 Aug 16:10:46 16:19:00 54° 269° (W) 16:27:14 435.465 / 435.565
KKS-1 05 Aug 16:16:09 16:16:51 10° 88° (E) 16:17:53 437.445
HORYU 2 05 Aug 16:19:54 16:22:15 15° 65° (ENE) 16:24:48 437.375
BEESAT 05 Aug 16:35:58 16:40:45 73° 285° (WNW) 16:45:28 436.000
JAS-2 05 Aug 16:41:42 16:47:56 72° 73° (ENE) 16:55:04 435.910
SWISSCUBE 05 Aug 16:57:31 17:01:58 40° 289° (WNW) 17:06:23 437.505
SO-50 05 Aug 17:03:32 17:05:06 11° 33° (NNE) 17:06:50 436.795
AO-7 05 Aug 17:04:13 17:12:26 65° 68° (ENE) 17:20:43 29.400- 29.500
STARS 05 Aug 17:11:26 17:15:09 26° 95° (E) 17:18:55 437.465
GONETS M04 05 Aug 17:12:53 17:19:18 23° 64° (ENE) 17:26:04
CUSAT 1 05 Aug 17:13:56 17:18:23 39° 263° (W) 17:24:04 437.405
ITUPSAT 1 05 Aug 17:21:11 17:25:13 27° 292° (WNW) 17:29:09 437.325
DANDE 05 Aug 17:27:22 17:31:27 41° 262° (W) 17:36:46 436.750
ITAMSAT 1 05 Aug 17:31:06 17:34:25 16° 270° (W) 17:37:28 435.822/435.867
Gurwin Techsat 1B 05 Aug 17:37:13 17:39:49 13° 272° (W) 17:42:05 435.225
MOZHAYETS 4 05 Aug 17:39:59 17:41:03 11° 87° (E) 17:42:25
VERMONT LUNAR 05 Aug 17:40:52 17:43:25 23° 153° (SSE) 17:46:02 437.305
KKS-1 05 Aug 17:49:35 17:54:03 69° 285° (WNW) 17:58:30 437.445
HORYU 2 05 Aug 17:54:05 17:58:28 55° 260° (W) 18:02:53 437.375
PCSat 05 Aug 18:19:14 18:23:58 30° 50° (NE) 18:28:45 145.827
JAS-2 05 Aug 18:29:35 18:33:59 18° 275° (W) 18:38:23 435.910
Cubesat XI-IV 05 Aug 18:38:18 18:41:38 18° 63° (ENE) 18:45:10 437.490
SO-50 05 Aug 18:41:51 18:46:45 59° 54° (NE) 18:51:34 436.795
STARS 05 Aug 18:47:46 18:51:33 28° 291° (WNW) 18:55:17 437.465
AO-7 05 Aug 18:58:53 19:05:51 28° 267° (W) 19:12:35 29.400- 29.500
GONETS M04 05 Aug 19:08:29 19:17:12 76° 265° (W) 19:25:55
PHONESAT 2.4 05 Aug 19:12:00 19:14:26 18° 150° (SSE) 19:16:57 2401.200-2431.200
MOZHAYETS 4 05 Aug 19:14:15 19:18:52 70° 285° (WNW) 19:23:26
VERMONT LUNAR 05 Aug 19:16:42 19:19:52 77° 169° (SSE) 19:23:03 437.305
Cosmos 2499 05 Aug 19:28:59 19:37:12 42° 73° (ENE) 19:45:30 435.465 / 435.565
CUTE-I 05 Aug 19:30:36 19:35:45 50° 72° (ENE) 19:40:56 437.470
CUBESAT XI-V 05 Aug 19:45:15 19:48:37 20° 92° (E) 19:52:06 437.345
ISS 05 Aug 20:01:21 20:02:57 13° 131° (SE) 20:04:40 145.825
PCSat 05 Aug 20:02:27 20:07:29 39° 249° (WSW) 20:12:28 145.827
Cubesat XI-IV 05 Aug 20:15:57 20:21:17 63° 259° (WSW) 20:26:37 437.490
SO-50 05 Aug 20:23:41 20:26:52 17° 250° (WSW) 20:29:49 436.795
RS-15 05 Aug 20:27:16 20:31:30 14° 99° (E) 20:36:48 29.354- 29.394
STRAND 1 05 Aug 20:32:29 20:36:00 19° 91° (E) 20:39:40 437.568
PHONESAT 2.4 05 Aug 20:48:34 20:52:02 63° 165° (SSE) 20:55:32 2401.200-2431.200
VERMONT LUNAR 05 Aug 20:53:24 20:56:36 86° 12° (NNE) 20:59:46 437.305
GOMX 1 05 Aug 20:54:39 20:57:45 21° 69° (ENE) 21:00:55 467.674
BRITE-PL 05 Aug 21:07:26 21:11:36 52° 74° (ENE) 21:15:38 437.365/2234.400
GONETS M04 05 Aug 21:08:52 21:12:45 13° 283° (WNW) 21:15:56
CUTE-I 05 Aug 21:12:11 21:16:10 20° 268° (W) 21:19:58 437.470
HO-68 05 Aug 21:17:48 21:24:14 39° 65° (ENE) 21:30:48 435.675
CUBESAT XI-V 05 Aug 21:21:58 21:26:13 37° 289° (WNW) 21:30:25 437.345
Cosmos 2499 05 Aug 21:22:11 21:30:26 45° 271° (W) 21:38:33 435.465 / 435.565
CINEMA 3 05 Aug 21:31:45 21:33:55 14° 65° (ENE) 21:36:18 145.822/145.860
COMPASS 1 05 Aug 21:31:51 21:34:30 17° 67° (ENE) 21:37:17 437.405
ISS 05 Aug 21:35:50 21:39:03 63° 325° (NW) 21:42:18 145.825
SEEDS 05 Aug 21:53:39 21:57:31 36° 72° (ENE) 22:01:28 437.485
DOVE 4 05 Aug 21:56:03 22:00:07 61° 74° (ENE) 22:04:15 437.250
PRISM 05 Aug 21:57:32 22:01:36 65° 285° (WNW) 22:05:38 437.425
CUTE 1.7 + AOD 2 05 Aug 22:04:08 22:08:20 60° 75° (ENE) 22:12:36 437.475
AAUSAT CUBESAT 2 05 Aug 22:07:38 22:11:26 34° 72° (ENE) 22:15:17 437.432
STRAND 1 05 Aug 22:10:36 22:15:31 48° 288° (WNW) 22:20:23 437.568
CANX-2 05 Aug 22:13:13 22:17:30 86° 77° (ENE) 22:21:50 2200.000
FUNcube-1 05 Aug 22:24:44 22:27:02 15° 66° (ENE) 22:29:33 145.935
PHONESAT 2.4 05 Aug 22:26:28 22:30:00 83° 1° (N) 22:33:31 2401.200-2431.200
Oscar 11 05 Aug 22:27:32 22:31:08 27° 70° (ENE) 22:34:49 145.826/435.025
VERMONT LUNAR 05 Aug 22:30:11 22:33:11 39° 201° (SSW) 22:36:09 437.305
RS-15 05 Aug 22:31:17 22:42:03 72° 117° (ESE) 22:53:16 29.354- 29.394
GOMX 1 05 Aug 22:32:07 22:35:48 29° 264° (W) 22:39:25 467.674
UWE-3 05 Aug 22:38:53 22:42:28 28° 70° (ENE) 22:46:12 435.000/436.395/437.385
BRITE-PL 05 Aug 22:48:50 22:50:32 12° 270° (W) 22:51:58 437.365/2234.400
DELFI C3 05 Aug 22:54:20 22:57:58 33° 72° (ENE) 23:01:40 145.870
CUBEBUG 2 05 Aug 23:04:11 23:08:21 69° 76° (ENE) 23:12:41 437.445
BEESAT 3 05 Aug 23:04:53 23:07:17 16° 111° (ESE) 23:09:51 437.485
HO-68 05 Aug 23:05:18 23:11:58 40° 263° (W) 23:18:35 435.675
COMPASS 1 05 Aug 23:05:51 23:09:51 41° 262° (W) 23:13:53 437.405
CINEMA 3 05 Aug 23:06:42 23:10:44 48° 261° (W) 23:14:53 145.822/145.860
DX 1 05 Aug 23:07:05 23:09:02 13° 64° (ENE) 23:11:13 434.975-435.025
ISS 05 Aug 23:13:56 23:16:00 16° 344° (NNW) 23:18:04 145.825
Cosmos 2491 05 Aug 23:16:17 23:22:15 21° 62° (ENE) 23:28:35 435.465 / 435.565
SEEDS 05 Aug 23:30:25 23:33:28 18° 268° (W) 23:36:23 437.485
ZACube-1 05 Aug 23:39:18 23:43:31 80° 257° (WSW) 23:47:52 437.345
VELOX 1 05 Aug 23:39:20 23:42:08 17° 66° (ENE) 23:45:06 145.980
UNISAT 6 05 Aug 23:42:08 23:42:42 10° 87° (E) 23:43:37 437.425
CUTE 1.7 + AOD 2 05 Aug 23:43:19 23:44:44 11° 272° (W) 23:45:53 437.475
AAUSAT CUBESAT 2 05 Aug 23:44:05 23:47:09 19° 268° (W) 23:50:07 437.432
HUMSAT D 05 Aug 23:45:08 23:49:07 46° 73° (ENE) 23:53:11 437.325/437.525
50 SAT 05 Aug 23:50:15 23:53:19 23° 70° (ENE) 23:56:29 437.505
FUNcube-1 05 Aug 23:58:53 00:02:58 48° 261° (W) 00:07:11 145.935
Oscar 11 06 Aug 00:03:34 00:07:16 26° 266° (W) 00:10:55 145.826/435.025
PHONESAT 2.4 06 Aug 00:04:29 00:07:55 55° 198° (SSW) 00:11:21 2401.200-2431.200
UKube-1 06 Aug 00:04:42 00:08:52 49° 72° (ENE) 00:13:03 .
BEESAT 2 06 Aug 00:08:17 00:12:19 60° 119° (ESE) 00:16:24 435.950
M-CUBED/EXP-1 PRIME 06 Aug 00:09:06 00:13:49 56° 104° (ESE) 00:18:19 437.505
ESTCUBE 1 06 Aug 00:09:54 00:13:36 26° 69° (ENE) 00:17:24 437.505/2401.250
UWE-3 06 Aug 00:15:32 00:19:01 24° 267° (W) 00:22:29 435.000/436.395/437.385
AIST 1 06 Aug 00:15:54 00:20:06 55° 80° (E) 00:24:16
TIGRISAT 06 Aug 00:20:30 00:24:28 27° 94° (E) 00:28:30 435.000
ANTELSAT 06 Aug 00:24:23 00:28:32 31° 95° (E) 00:32:44 437.575/2403.000
POPSAT HIP 1 06 Aug 00:29:49 00:31:07 11° 89° (E) 00:32:40 437.405
DELFI C3 06 Aug 00:30:14 00:33:09 18° 268° (W) 00:35:57 145.870
AUBIESAT-1 06 Aug 00:33:32 00:38:17 87° 108° (ESE) 00:42:48 437.475
CUBEBUG 1 06 Aug 00:35:12 00:39:12 38° 72° (ENE) 00:43:15 437.445
AISAT 06 Aug 00:36:30 00:40:52 74° 75° (ENE) 00:45:16 437.250
AIST 2 06 Aug 00:37:34 00:41:06 27° 114° (ESE) 00:44:44 435.215
QB50P2 06 Aug 00:37:51 00:40:16 15° 91° (E) 00:42:53 145.880/145.840
DX 1 06 Aug 00:40:35 00:44:51 58° 259° (W) 00:49:08 434.975-435.025
BEESAT 3 06 Aug 00:40:58 00:44:54 45° 307° (NW) 00:48:51 437.485
RS-15 06 Aug 00:45:24 00:55:29 38° 322° (NW) 01:05:48 29.354- 29.394
ISS 06 Aug 00:52:19 00:53:29 11° 4° (N) 00:54:40 145.825
SPROUT 06 Aug 00:52:52 00:55:41 18° 67° (ENE) 00:58:38 437.525
DUCHIFAT 1 06 Aug 00:55:50 00:59:09 22° 94° (E) 01:02:33 145.980
NANOSAT C BR1 06 Aug 01:01:58 01:05:35 27° 95° (E) 01:09:15 145.865
QB50P1 06 Aug 01:02:49 01:06:29 28° 95° (E) 01:10:12 145.935-145.965
Cosmos 2491 06 Aug 01:11:37 01:20:23 83° 263° (W) 01:29:05 435.465 / 435.565
VELOX 1 06 Aug 01:14:11 01:18:24 43° 261° (W) 01:22:36 145.980
UNISAT 6 06 Aug 01:15:23 01:20:07 77° 285° (WNW) 01:24:49 437.425
HUMSAT D 06 Aug 01:22:54 01:25:11 14° 270° (W) 01:27:18 437.325/437.525
50 SAT 06 Aug 01:24:33 01:27:48 24° 265° (W) 01:31:02 437.505
YUBILEINY 06 Aug 01:29:43 01:38:11 61° 92° (E) 01:46:47 435.215
BUGSAT 1 06 Aug 01:40:15 01:44:11 44° 99° (E) 01:48:09 437.445
UKube-1 06 Aug 01:42:58 01:45:20 14° 270° (W) 01:47:29 .
PHONESAT 2.4 06 Aug 01:43:21 01:45:28 15° 212° (SSW) 01:47:30 2401.200-2431.200
M-CUBED/EXP-1 PRIME 06 Aug 01:44:55 01:48:07 18° 301° (WNW) 01:51:08 437.505
ESTCUBE 1 06 Aug 01:46:25 01:50:24 29° 265° (W) 01:54:20 437.505/2401.250
POLYITAN 1 06 Aug 01:48:11 01:52:30 85° 283° (WNW) 01:56:48 437.675
BEESAT 2 06 Aug 01:48:11 01:50:47 16° 317° (NW) 01:53:16 435.950
AIST 1 06 Aug 01:56:02 01:57:17 11° 274° (W) 01:58:18
TIGRISAT 06 Aug 01:57:03 02:01:11 30° 290° (WNW) 02:05:16 435.000
O/OREOS (USA 219) 06 Aug 01:58:56 02:03:07 41° 106° (ESE) 02:07:22 437.305
ANTELSAT 06 Aug 02:01:13 02:05:13 27° 291° (WNW) 02:09:07 437.575/2403.000
POPSAT HIP 1 06 Aug 02:03:13 02:07:25 59° 286° (WNW) 02:11:38 437.405
BEESAT 06 Aug 02:06:50 02:09:07 14° 63° (ENE) 02:11:37 436.000
AUBIESAT-1 06 Aug 02:10:29 02:12:17 12° 304° (WNW) 02:13:51 437.475
QB50P2 06 Aug 02:12:21 02:16:26 44° 287° (WNW) 02:20:30 145.880/145.840
CUBEBUG 1 06 Aug 02:12:42 02:15:45 18° 268° (W) 02:18:39 437.445
AIST 2 06 Aug 02:15:48 02:19:36 30° 310° (NW) 02:23:23 435.215
TISAT 1 06 Aug 02:18:38 02:22:48 82° 257° (WSW) 02:27:00 437.305
SWISSCUBE 06 Aug 02:26:34 02:30:17 23° 67° (ENE) 02:34:06 437.505
SPROUT 06 Aug 02:27:29 02:31:30 39° 262° (W) 02:35:31 437.525
ISS 06 Aug 02:28:07 02:30:49 23° 24° (NNE) 02:33:32 145.825
DUCHIFAT 1 06 Aug 02:31:15 02:34:59 30° 290° (WNW) 02:38:40 145.980
Oscar 19 06 Aug 02:33:25 02:34:28 11° 87° (E) 02:35:54 437.125/150
NANOSAT C BR1 06 Aug 02:37:48 02:41:20 25° 291° (WNW) 02:44:47 145.865
QB50P1 06 Aug 02:38:46 02:42:15 24° 291° (WNW) 02:45:40 145.935-145.965
ITUPSAT 1 06 Aug 02:49:25 02:53:44 35° 70° (ENE) 02:58:07 437.325
Cosmos 2504 06 Aug 02:50:46 02:55:49 21° 82° (E) 03:01:24 435.465 / 435.565
RS-15 06 Aug 03:04:46 03:12:30 20° 356° (N) 03:20:25 29.354- 29.394
Cosmos 2491 06 Aug 03:11:23 03:16:03 15° 282° (WNW) 03:20:07 435.465 / 435.565
BUGSAT 1 06 Aug 03:16:54 03:19:20 15° 293° (WNW) 03:21:38 437.445
YUBILEINY 06 Aug 03:28:14 03:35:40 29° 293° (WNW) 03:42:55 435.215
O/OREOS (USA 219) 06 Aug 03:39:24 03:42:46 20° 304° (NW) 03:46:02 437.305
BEESAT 06 Aug 03:41:41 03:46:27 68° 258° (WSW) 03:51:15 436.000
